Aeroporto :
LOGIN :

Iscrizione | Disclaimer

   EN    FR    IT 

 










Sommario :    VFR   VFR Marginale   IFR   IFR Intensivo   IFR Molto Intensivo
Visibilità : 
Base nubi : 
>= 8 km
>= 3000ft
5 / 8 km
1000 / 3000 ft
1500m / 5 km
500 / 1000 ft
800 / 1500m
200 / 500 ft
< 800m
< 200 ft
Simboli :   Temporali  Nebbia  Neve Forte  Precipitazioni Forti  Vento > 20 kt
SIGMETs :   Varie  Temporali  Ghiacco  Turbolenza  Onda orograficha  Ceneri Vulcaniche






- Altitudine del aeroporto : 628 ft
- Codice IATA : CMR


LFGA - Colmar-Houssen

ULTIMO METAR :
  • 170300Z AUTO 21013KT 160V260 9999 OVC052 17/06 Q1016

METARs OBSOLETI :
  • 170230Z AUTO 22009KT 200V260 9999 OVC054 17/06 Q1016
  • 170200Z AUTO 18009KT 110V250 9999 OVC056 17/06 Q1016
  • 170130Z AUTO VRB07KT 9999 BKN056 16/06 Q1016
  • 170100Z AUTO 17005KT 130V220 9999 FEW056 SCT140 BKN230 16/05 Q1015
  • 170030Z AUTO VRB04KT 9999 SCT058 16/05 Q1015

TAF N/A



MetMap, La meteo Aeronautica in un colpo d'occhio ! - Copyright ORBIFLY Dicembre 2007 - Disclaimer

ORBIFLY MET'MAP TEAM :

Programmazione e sviluppo : Alexandra Zaïnal
Concezione : Baudouin d'Aumeries
Aiuto per la programmazione : Marc-Olivier Méhu
Supporto tecnico e logistico : Manuel Goepfert
Aiuto per la traduzione : Arnaldo La Scala

Contatto : metmap@orbifly.com




FONTI E CREDITI :

   NOAA